Regional Weather Roundup
Issued by NWS Nashville, TN

Home | Current Version | Previous Version | Text Only | Print | Product List | Glossary On
Versions: 1 2 3 4 5 6 7 8 9 10 11 12 13 14 15 16 17 18 19 20 21 22 23 24 25 26 27 28 29 30 31 32 33 34 35 36 37 38 39 40 41 42 43 44 45 46 47 48 49 50
000
ASUS44 KOHX 051710
RWROHX
MIDDLE TENNESSEE HOURLY WEATHER ROUNDUP
NATIONAL WEATHER SERVICE NASHVILLE TN
1200 PM CDT SAT SEP 05 2015

NOTE: "FAIR" INDICATES FEW OR NO CLOUDS BELOW 12,000 FEET WITH
NO SIGNIFICANT WEATHER AND/OR OBSTRUCTIONS TO VISIBILITY.

* THESE REPORTS ARE NOT UNDER NWS QUALITY CONTROL AND MAY NOT
  REPORT WEATHER SUCH AS PRECIPITATION AND FOG.


TNZ005>011-023>034-057-059-062>066-078-080-051800
...NORTHERN MIDDLE TENNESSEE...

CITY           SKY/WX    TMP DP  RH WIND       PRES   REMARKS
CLARKSVILLE    SUNNY     91  66  43 VRB6      30.10F HX  93
CROSSVILLE     SUNNY     84  65  52 VRB6      30.19F
DICKSON        SUNNY     88  68  51 VRB5      30.12F HX  91
NASHVILLE      MOSUNNY   91  65  41 CALM      30.11F HX  93
ROCKWOOD       SUNNY     82  67  60 S3        30.19F
SMYRNA         SUNNY     32  32 100 SW3       30.11F
$$
TNZ056-058-060-061-075>077-079-093>097-051800
...SOUTHERN MIDDLE TENNESSEE...

CITY           SKY/WX    TMP DP  RH WIND       PRES   REMARKS
COLUMBIA       SUNNY     91  72  52 VRB3      30.09F HX  98
LEWISBURG      SUNNY     89  71  55 CALM      30.11F HX  95
MCMINNVILLE    SUNNY     88  73  62 VRB3      30.13F HX  96
SHELBYVILLE    SUNNY     88  73  62 CALM      30.13F HX  96
TULLAHOMA      SUNNY     84  70  61 S6        30.14F
WINCHESTER     SUNNY     84  72  65 E8        30.13F
$$


...KEY TO REMARKS...
VSB - VISIBILITY IN MILES
WCI - WIND CHILL INDEX
HX  - HEAT INDEX



USA.gov is the U.S. government's official web portal to all federal, state and local government web resources and services.